This demonstration page uses our WeatherBlox Daily Observations layout. Learn more.

41.55636, -103.73856

Hourly Observations for May 20, 2015

Temp ( °F °C ) Dew Point ( °F °C ) Humidity (%) Winds ( mph kmh ) Pressure ( in mb ) Visibility ( mi km ) Precip ( " mm )
12:37 am 00:37 Cloudy with Light Snow 34 1 32 0 93 93 E 5 7 30.33 1027 2.5 4.02335 0 0
12:50 am 00:50 Cloudy with Light Snow 34 1 32 0 93 93 E 5 7 30.33 1027 3 4.82802 0 0
12:53 am 00:53 Cloudy with Light Snow 34 1.1 32 0 92 92 E 5 7 30.29 1026 3 4.82802 0.01 0.254
1:22 am 01:22 Cloudy with Light Snow 34 1 34 1 100 100 Calm 30.33 1027 2.5 4.02335 0 0
1:31 am 01:31 Cloudy with Light Snow 34 1.1 32 0 92 92 E 3 6 30.33 1027 2 3.21868 0 0.0254
1:45 am 01:45 Cloudy with Light Snow 33 0.6 32 0 96 96 ENE 3 6 30.33 1027 1.75 2.816345 0.01 0.254
1:53 am 01:53 Cloudy with Light Snow 33 0.6 32 0 96 96 ENE 3 6 30.29 1026 2 3.21868 0.01 0.254
2:12 am 02:12 Cloudy with Light Snow 34 1 32 0 93 93 Calm 30.33 1027 2.5 4.02335 0 0
2:28 am 02:28 Cloudy with Light Snow 34 1 32 0 93 93 N 3 6 30.33 1027 2.5 4.02335 0 0
2:46 am 02:46 Cloudy with Light Snow 34 1 32 0 93 93 Calm 30.33 1027 2 3.21868 0 0
2:53 am 02:53 Cloudy with Light Snow 34 1.1 32 0 92 92 Calm 30.28 1025 2 3.21868 0.02 0.508
3:11 am 03:11 Cloudy with Light Snow 33 0.6 32 0 96 96 Calm 30.33 1027 3 4.82802 0 0.0254
3:26 am 03:26 Cloudy with Light Snow 33 0.6 32 0 96 96 N 3 6 30.3 1026 5 8.0467 0 0.0254
3:53 am 03:53 Cloudy 34 1.1 32 0 92 92 Calm 30.28 1025 9 14.48406 0.01 0.254
4:31 am 04:31 Cloudy with Light Snow 34 1.1 32 0 92 92 NNE 3 6 30.33 1027 6 9.65604 0 0.0254
4:53 am 04:53 Cloudy 34 1.1 32 0 92 92 NNE 3 6 30.29 1026 10 16.0934 0 0.0254
5:53 am 05:53 Cloudy 35 1.7 32 0 89 89 Calm 30.31 1026 10 16.0934 0 0
6:53 am 06:53 Cloudy 35 1.7 32 0 89 89 Calm 30.32 1027 10 16.0934 0 0
7:27 am 07:27 Cloudy 36 2.2 33 0.6 89 89 NNE 5 7 30.36 1028 10 16.0934 0 0
7:53 am 07:53 Cloudy 36 2.2 32 0 86 86 NNE 6 9 30.34 1027 10 16.0934 0 0
8:53 am 08:53 Cloudy 38 3.3 33 0.6 83 83 NE 8 13 30.35 1028 10 16.0934 0 0
9:12 am 09:12 Cloudy 37 3 34 1 87 87 NNE 7 11 30.36 1028 10 16.0934 0 0
9:53 am 09:53 Cloudy 40 4.4 34 1.1 79 79 NNE 7 11 30.35 1028 10 16.0934 0 0
10:53 am 10:53 Cloudy 42 5.6 33 0.6 71 71 NNE 9 15 30.35 1028 10 16.0934 0 0
11:53 am 11:53 Cloudy 43 6.1 33 0.6 68 68 VRB 6 9 30.35 1028 10 16.0934 0 0
12:53 pm 12:53 Cloudy 44 6.7 33 0.6 65 65 Calm 30.35 1028 10 16.0934 0 0
1:53 pm 13:53 Cloudy 46 7.8 34 1.1 63 63 ENE 6 9 30.33 1027 10 16.0934 0 0
2:53 pm 14:53 Cloudy 47 8.3 34 1.1 61 61 Calm 30.32 1027 10 16.0934 0 0
3:20 pm 15:20 Cloudy 46 8 36 2 66 66 ENE 12 19 30.3 1026 10 16.0934 0 0
3:53 pm 15:53 Cloudy 46 7.8 34 1.1 63 63 VRB 3 6 30.32 1027 10 16.0934 0 0
4:53 pm 16:53 Cloudy 46 7.8 34 1.1 63 63 NE 8 13 30.32 1027 10 16.0934 0 0
5:53 pm 17:53 Cloudy 46 7.8 34 1.1 63 63 E 8 13 30.31 1027 10 16.0934 0 0
6:53 pm 18:53 Cloudy 46 7.8 33 0.6 61 61 E 7 11 30.3 1026 10 16.0934 0 0
7:53 pm 19:53 Cloudy 45 7.2 34 1.1 66 66 E 6 9 30.31 1026 10 16.0934 0 0
8:53 pm 20:53 Cloudy 44 6.7 35 1.7 71 71 E 7 11 30.32 1027 10 16.0934 0 0
9:53 pm 21:53 Mostly Cloudy 42 5.6 35 1.7 76 76 E 8 13 30.33 1027 10 16.0934 0 0
10:53 pm 22:53 Cloudy 41 5 36 2.2 82 82 ENE 6 9 30.33 1027 10 16.0934 0 0
11:53 pm 23:53 Cloudy 42 5.6 36 2.2 79 79 ESE 5 7 30.32 1027 10 16.0934 0 0

Powered by AerisWeather